CW4477 Weather Reports


time (UTC)temp
F
wind
direction
speed
knots
gust
knots
rain 1hr
in
rain 24hr
in
rain mn
in
humidity
%
barometer
mb
20260509150112 65 237 2.6 9.6 0.00 0.04 0.01 54 1002.5
20260509145612 65 282 5.2 9.6 0.00 0.04 0.01 55 1002.4
20260509145109 65 222 2.6 8.7 0.00 0.04 0.01 56 1002.5
20260509144609 64 313 3.5 11.3 0.00 0.04 0.01 57 1002.4
20260509144330 64 295 3.5 11.3 0.00 0.04 0.01 57 1002.4
20260509143835 64 234 4.3 11.3 0.00 0.04 0.01 58 1002.4
20260509143327 64 288 5.2 8.7 0.00 0.04 0.01 59 1002.4
20260509143050 64 292 2.6 7.8 0.00 0.04 0.01 60 1002.4
20260509142106 63 277 1.7 8.7 0.00 0.04 0.01 61 1002.4
20260509141605 62 296 4.3 9.6 0.00 0.04 0.01 61 1002.3
20260509141104 62 289 4.3 9.6 0.00 0.04 0.01 63 1002.3
20260509140603 61 253 7.0 9.6 0.00 0.04 0.01 62 1002.3
20260509140329 62 307 2.6 8.7 0.00 0.04 0.01 63 1002.4
20260509135604 61 313 2.6 9.6 0.00 0.04 0.01 65 1002.2
20260509135058 61 305 1.7 9.6 0.00 0.04 0.01 66 1002.1
20260509134559 60 312 5.2 10.4 0.00 0.04 0.01 67 1002.1
20260509134059 60 302 4.3 12.2 0.00 0.04 0.01 68 1002.1
20260509133556 60 230 1.7 12.2 0.00 0.04 0.01 68 1002.3
20260509133534 59 22 4.3 11.3 0.00 0.04 0.01 68 1002.4
20260509132555 60 303 5.2 9.6 0.00 0.04 0.01 68 1002.6
20260509132054 60 324 5.2 9.6 0.00 0.04 0.01 68 1002.6
20260509131552 60 1 1.7 8.7 0.00 0.04 0.01 69 1002.6
20260509131052 59 310 2.6 7.8 0.00 0.04 0.01 70 1002.5
20260509130552 59 303 1.7 9.6 0.00 0.04 0.01 70 1002.6
20260509130052 59 306 4.3 9.6 0.00 0.04 0.01 70 1002.5
20260509125549 59 324 0.9 13.0 0.00 0.04 0.01 73 1002.4
20260509125053 58 296 2.6 13.0 0.00 0.04 0.01 73 1002.3
20260509124547 58 299 2.6 12.2 0.00 0.04 0.01 73 1002.5
20260509124046 58 292 1.7 10.4 0.00 0.04 0.01 75 1002.5
20260509123545 57 264 4.3 10.4 0.00 0.04 0.01 76 1002.4
20260509123046 57 334 4.3 7.8 0.00 0.04 0.01 77 1002.4
20260509122543 57 292 3.5 7.8 0.00 0.04 0.01 77 1002.5
20260509122044 56 310 4.3 8.7 0.00 0.04 0.01 79 1002.5
20260509121541 56 257 3.5 8.7 0.00 0.04 0.01 80 1002.4
20260509121313 56 149 4.3 9.6 0.00 0.04 0.01 80 1002.3
20260509120542 56 225 5.2 9.6 0.00 0.04 0.01 81 1002.4
20260509120040 55 241 5.2 9.6 0.00 0.04 0.01 82 1002.4
20260509115539 55 237 3.5 8.7 0.00 0.04 0.01 83 1002.3
20260509115041 55 302 2.6 7.8 0.00 0.04 0.01 83 1002.4
20260509114808 55 223 3.5 7.8 0.00 0.04 0.01 83 1002.3
20260509114040 55 191 1.7 7.8 0.00 0.04 0.01 83 1002.2
20260509113536 55 212 4.3 7.8 0.00 0.04 0.01 83 1002.1
20260509113037 55 237 4.3 8.7 0.00 0.04 0.01 84 1002.2
20260509112535 55 270 2.6 8.7 0.00 0.04 0.01 83 1002.2
20260509112035 55 272 3.5 7.0 0.00 0.04 0.01 83 1002.2
20260509111535 55 262 1.7 9.6 0.00 0.06 0.01 83 1002.3
20260509111035 55 98 2.6 9.6 0.00 0.07 0.01 83 1002.1
20260509110528 55 180 4.3 7.0 0.00 0.07 0.01 83 1001.8
20260509110248 55 278 4.3 7.0 0.00 0.07 0.01 83 1001.8
20260509105524 55 241 3.5 7.0 0.00 0.07 0.01 83 1001.9
20260509105024 55 215 2.6 7.0 0.00 0.07 0.01 82 1001.9
20260509104523 55 237 3.5 8.7 0.00 0.07 0.01 82 1001.8
20260509104023 55 232 3.5 8.7 0.00 0.07 0.01 83 1001.8
20260509103520 55 229 2.6 7.8 0.00 0.07 0.01 83 1001.7
20260509103020 55 180 4.3 7.8 0.00 0.07 0.01 83 1001.8
20260509102520 55 267 3.5 8.7 0.00 0.07 0.01 82 1001.8
20260509102021 55 206 3.5 8.7 0.00 0.07 0.01 82 1001.8
20260509101516 55 241 5.2 8.7 0.00 0.07 0.01 82 1001.9
20260509101456 55 205 4.3 6.1 0.00 0.07 0.01 82 1001.9
20260509100517 55 195 3.5 6.1 0.00 0.07 0.01 82 1002.0
20260509100015 55 195 2.6 6.1 0.00 0.07 0.01 82 1002.0
20260509095514 55 289 1.7 7.8 0.00 0.07 0.01 82 1002.1
20260509095014 55 223 1.7 7.8 0.00 0.07 0.01 82 1002.2
20260509094514 55 284 3.5 7.0 0.00 0.07 0.01 82 1002.3
20260509094014 55 243 1.7 7.0 0.00 0.07 0.01 82 1002.5
20260509093512 55 258 3.5 7.0 0.00 0.07 0.01 82 1002.5
20260509093010 55 240 1.7 7.8 0.00 0.07 0.01 82 1002.5
20260509092512 55 313 2.6 7.8 0.00 0.07 0.01 81 1002.5
20260509092010 55 241 3.5 7.8 0.00 0.07 0.01 82 1002.4
20260509091511 55 188 3.5 7.0 0.00 0.07 0.01 81 1002.4
20260509091013 55 195 3.5 8.7 0.01 0.07 0.01 81 1002.5
20260509090507 55 248 1.7 8.7 0.01 0.07 0.01 81 1002.5
20260509090006 55 248 2.6 7.0 0.01 0.07 0.01 81 1002.6
20260509085509 56 87 2.6 8.7 0.01 0.07 0.01 81 1002.6
20260509085005 55 236 2.6 8.7 0.01 0.07 0.01 81 1002.6
20260509084504 55 244 3.5 6.1 0.01 0.07 0.01 81 1002.7
20260509084004 55 241 1.7 7.0 0.01 0.07 0.01 81 1002.7
20260509083503 55 254 2.6 7.0 0.01 0.07 0.01 80 1002.7
20260509083238 55 285 2.6 7.0 0.01 0.07 0.01 80 1002.7
20260509082505 56 292 1.7 7.0 0.01 0.07 0.01 80 1002.6
20260509082009 55 248 2.6 7.0 0.01 0.07 0.01 80 1002.6
20260509081459 56 260 1.7 7.0 0.01 0.07 0.01 79 1002.6
20260509080958 56 258 3.5 6.1 0.00 0.06 0.00 80 1002.6
20260509080456 56 168 0.9 7.0 0.00 0.06 0.00 79 1002.6
20260509075957 56 227 0.9 7.0 0.00 0.06 0.00 79 1002.6
20260509075720 56 264 3.5 6.1 0.00 0.06 0.00 79 1002.7
20260509074953 56 175 2.6 6.1 0.00 0.06 0.00 78 1002.6
20260509074451 56 201 1.7 6.1 0.00 0.06 0.00 78 1002.8
20260509073951 56 264 2.6 5.2 0.00 0.06 0.00 78 1002.8
20260509073449 56 251 3.5 7.0 0.00 0.06 0.00 77 1002.8
20260509072949 56 196 2.6 7.8 0.00 0.06 0.00 77 1002.9
20260509072448 56 248 2.6 7.8 0.00 0.06 0.00 77 1003.0
20260509071952 56 260 3.5 7.0 0.00 0.06 0.00 77 1003.0
20260509071447 56 272 1.7 6.1 0.00 0.06 0.00 76 1003.1
20260509070945 56 265 2.6 6.1 0.00 0.06 0.00 76 1003.3
20260509070730 56 271 3.5 6.1 0.00 0.06 0.00 77 1003.3
20260509065944 57 219 1.7 6.1 0.00 0.06 0.00 76 1003.3
20260509065445 57 323 1.7 6.1 0.00 0.06 0.00 76 1003.4
20260509065208 57 285 0.9 7.0 0.00 0.06 0.00 76 1003.5
20260509064438 57 108 1.7 7.0 0.00 0.06 0.00 76 1003.4
20260509063935 57 243 3.5 6.1 0.00 0.06 0.00 76 1003.5
20260509063435 57 181 2.6 7.0 0.00 0.06 0.00 76 1003.5
20260509062934 57 212 1.7 8.7 0.00 0.06 0.00 76 1003.5
20260509062434 57 237 0.9 8.7 0.00 0.06 0.00 76 1003.6
20260509061932 57 220 2.6 7.8 0.00 0.06 0.00 76 1003.6
20260509061431 57 293 2.6 8.7 0.00 0.06 0.00 76 1003.8
20260509060932 58 262 2.6 8.7 0.00 0.06 0.00 76 1003.9
20260509060428 58 284 2.6 8.7 0.00 0.06 0.00 75 1004.0
20260509055928 58 257 2.6 8.7 0.00 0.06 0.00 75 1004.1
20260509055426 58 253 1.7 8.7 0.00 0.06 0.00 75 1004.1
20260509054928 58 277 2.6 7.0 0.00 0.06 0.00 74 1004.1
20260509054647 58 244 4.3 7.0 0.00 0.06 0.00 75 1004.1
20260509053927 58 192 1.7 6.1 0.00 0.06 0.00 74 1004.1
20260509053649 58 250 2.6 6.1 0.00 0.06 0.00 74 1004.1
20260509052924 58 237 3.5 6.1 0.00 0.06 0.00 73 1004.1
20260509052423 58 219 1.7 7.8 0.00 0.06 0.00 72 1004.1
20260509051923 58 288 3.5 7.8 0.00 0.06 0.00 73 1003.9
20260509051422 58 192 2.6 7.0 0.00 0.06 0.00 72 1003.9
20260509050922 58 241 2.6 7.0 0.00 0.06 0.00 71 1004.1
20260509050649 58 208 3.5 7.0 0.00 0.06 0.00 71 1004.1
20260509045921 58 199 4.3 8.7 0.00 0.06 0.06 70 1004.0
20260509045418 58 219 3.5 8.7 0.00 0.06 0.06 69 1004.0
20260509045142 59 203 4.3 7.0 0.00 0.06 0.06 69 1004.0
20260509044418 59 161 3.5 7.0 0.00 0.06 0.06 68 1004.2
20260509043918 59 158 1.7 6.1 0.00 0.06 0.06 67 1004.3
20260509043418 59 237 3.5 7.0 0.00 0.06 0.06 67 1004.3
20260509042916 59 250 3.5 7.0 0.00 0.06 0.06 66 1004.2
20260509042415 59 225 3.5 7.8 0.00 0.06 0.06 66 1004.1
20260509041914 59 230 5.2 8.7 0.00 0.06 0.06 66 1004.1
20260509041414 59 241 3.5 8.7 0.00 0.08 0.06 66 1004.1
20260509041359 59 182 4.3 8.7 0.00 0.08 0.06 66 1004.1
20260509040412 59 226 3.5 8.7 0.00 0.08 0.06 66 1004.1
20260509035911 58 232 3.5 5.2 0.00 0.08 0.06 66 1004.2
20260509035411 58 187 2.6 5.2 0.00 0.08 0.06 65 1004.3
20260509034910 58 187 1.7 5.2 0.00 0.08 0.06 65 1004.4
20260509034408 58 227 2.6 7.8 0.00 0.08 0.06 64 1004.4
20260509033908 58 191 2.6 7.8 0.00 0.08 0.06 64 1004.3
20260509033625 58 253 1.7 7.0 0.00 0.08 0.06 63 1004.3
20260509032908 58 222 2.6 7.8 0.00 0.08 0.06 64 1004.4
20260509032409 58 216 1.7 7.8 0.00 0.08 0.06 64 1004.4
20260509031906 58 182 2.6 7.0 0.00 0.08 0.06 64 1004.4
20260509031404 57 195 3.5 6.1 0.00 0.08 0.06 65 1004.4
20260509030903 56 226 2.6 5.2 0.00 0.08 0.06 66 1004.5
20260509030628 56 157 2.6 5.2 0.00 0.08 0.06 66 1004.5
20260509025904 56 271 0.0 3.5 0.00 0.08 0.06 65 1004.5
20260509025354 56 133 1.7 4.3 0.00 0.08 0.06 66 1004.5
20260509024850 56 153 2.6 4.3 0.00 0.08 0.06 64 1004.6
20260509024351 56 187 1.7 3.5 0.00 0.08 0.06 65 1004.7
20260509023851 56 178 2.6 3.5 0.00 0.08 0.06 64 1004.9
20260509023348 56 227 1.7 3.5 0.00 0.08 0.06 64 1004.9
20260509022849 56 174 1.7 3.5 0.00 0.08 0.06 64 1004.9
20260509022348 56 115 0.9 3.5 0.00 0.08 0.06 63 1005.0
20260509022116 56 23 1.7 3.5 0.00 0.08 0.06 63 1005.0
20260509021346 56 158 1.7 3.5 0.00 0.08 0.06 63 1005.1
20260509020842 56 118 0.9 3.5 0.00 0.08 0.06 63 1005.0
20260509020339 56 184 1.7 3.5 0.00 0.08 0.06 63 1005.0
20260509015844 56 154 0.9 3.5 0.00 0.08 0.06 63 1005.0
20260509015336 56 175 0.0 5.2 0.00 0.08 0.06 63 1004.9
20260509014836 56 120 1.7 5.2 0.00 0.08 0.06 62 1005.0
20260509014335 56 109 1.7 5.2 0.00 0.08 0.06 62 1004.9
20260509013839 56 85 3.5 5.2 0.00 0.08 0.06 62 1004.9
20260509013334 56 144 3.5 7.0 0.00 0.08 0.06 62 1004.9
20260509012834 56 174 3.5 7.0 0.00 0.08 0.06 61 1004.9
20260509012554 56 147 3.5 5.2 0.00 0.08 0.06 61 1004.9
20260509011832 56 174 2.6 5.2 0.00 0.08 0.06 59 1004.7
20260509011329 56 101 1.7 4.3 0.00 0.08 0.06 58 1004.7
20260509010829 56 142 2.6 4.3 0.00 0.08 0.06 59 1004.9
20260509010328 56 217 1.7 4.3 0.00 0.08 0.06 57 1004.9
20260509005829 56 108 1.7 5.2 0.00 0.08 0.06 56 1004.7
20260509005552 56 106 3.5 5.2 0.00 0.08 0.06 56 1004.9
20260509004827 56 157 0.0 5.2 0.00 0.08 0.06 55 1004.9
20260509004317 57 171 0.9 7.8 0.00 0.08 0.06 54 1004.7
20260509003816 57 111 3.5 7.8 0.00 0.08 0.06 53 1004.9
20260509003755 57 194 4.3 7.8 0.00 0.08 0.06 53 1004.9
20260509002814 57 225 3.5 7.0 0.00 0.08 0.06 52 1004.9
20260509002314 57 161 2.6 7.8 0.00 0.08 0.06 52 1005.0
20260509001812 57 64 1.7 7.8 0.00 0.08 0.06 52 1005.0
20260509001312 57 184 0.0 7.0 0.00 0.08 0.06 51 1005.1
20260509000813 57 112 3.5 7.0 0.00 0.08 0.06 50 1005.1
20260509000311 57 74 1.7 5.2 0.00 0.08 0.06 50 1005.0
20260508235808 57 165 0.9 7.0 0.00 0.08 0.06 49 1005.1
20260508235307 57 195 2.6 7.0 0.00 0.08 0.06 49 1005.1
20260508234810 57 180 1.7 7.0 0.00 0.08 0.06 48 1005.2
20260508234307 58 175 4.3 6.1 0.00 0.08 0.06 48 1005.2
20260508233804 58 113 2.6 7.0 0.00 0.08 0.06 47 1005.2
20260508233518 58 105 1.7 7.0 0.00 0.08 0.06 47 1005.2
20260508233029 58 71 0.9 8.7 0.00 0.08 0.06 49 1005.2
20260508232256 58 115 1.7 8.7 0.00 0.08 0.06 50 1005.2
20260508232016 58 149 3.5 8.7 0.00 0.08 0.06 50 1005.4
20260508231254 59 97 4.3 7.8 0.00 0.08 0.06 49 1005.3
20260508230755 59 153 2.6 7.8 0.00 0.08 0.06 48 1005.3
20260508230525 59 142 3.5 7.8 0.00 0.08 0.06 48 1005.4
20260508225752 58 144 3.5 7.8 0.00 0.08 0.06 47 1005.4
20260508225250 59 123 4.3 8.7 0.00 0.08 0.06 45 1005.4
20260508224753 59 112 1.7 8.7 0.00 0.08 0.06 42 1005.4
20260508224248 59 102 3.5 8.7 0.00 0.08 0.06 41 1005.4
20260508223749 59 74 1.7 8.7 0.00 0.08 0.06 42 1005.4
20260508223247 59 82 3.5 8.7 0.00 0.08 0.06 41 1005.4
20260508222746 59 156 2.6 8.7 0.00 0.08 0.06 41 1005.5
20260508222245 59 61 2.6 7.0 0.00 0.08 0.06 44 1005.5
20260508221745 59 142 3.5 7.8 0.00 0.08 0.06 45 1005.5
20260508221508 59 184 0.9 7.8 0.00 0.08 0.06 47 1005.5
20260508220747 59 102 3.5 8.7 0.00 0.08 0.06 44 1005.5
20260508220241 59 106 3.5 8.7 0.00 0.08 0.06 44 1005.5
20260508215752 59 184 4.3 9.6 0.00 0.08 0.06 43 1005.6
20260508215514 59 140 3.5 11.3 0.00 0.08 0.06 44 1005.6
20260508214740 59 108 2.6 11.3 0.00 0.08 0.06 44 1005.7
20260508214239 59 165 4.3 11.3 0.00 0.08 0.06 42 1005.7
20260508213739 59 170 6.1 9.6 0.00 0.08 0.06 44 1005.6
20260508213239 59 66 4.3 9.6 0.00 0.11 0.06 44 1005.7
20260508212739 59 139 5.2 9.6 0.00 0.14 0.06 41 1005.8
20260508212504 59 98 3.5 8.7 0.00 0.33 0.06 44 1005.8
20260508211739 59 101 3.5 8.7 0.00 0.34 0.06 44 1005.8
20260508211236 59 136 2.6 9.6 0.00 0.34 0.06 51 1005.8
20260508210735 60 127 4.3 9.6 0.00 0.34 0.06 50 1005.8
20260508210233 60 140 5.2 9.6 0.00 0.34 0.06 51 1005.8
20260508210000 60 102 6.1 9.6 0.00 0.34 0.06 50 1005.8
20260508205232 60 130 4.3 9.6 0.00 0.34 0.06 48 1005.9
20260508204731 60 153 5.2 9.6 0.00 0.34 0.06 48 1005.8
20260508204230 61 165 4.3 8.7 0.00 0.34 0.06 46 1005.9
20260508204005 61 168 5.2 8.7 0.00 0.34 0.06 44 1006.0
20260508203229 61 188 5.2 8.7 0.00 0.34 0.06 45 1006.1
20260508202729 62 161 5.2 8.7 0.00 0.34 0.06 43 1006.1
20260508202227 61 130 4.3 8.7 0.00 0.34 0.06 43 1006.2
20260508201730 61 77 0.0 8.7 0.00 0.34 0.06 42 1006.3
20260508201226 61 67 3.5 9.6 0.00 0.34 0.06 42 1006.4
20260508200726 62 105 6.1 9.6 0.00 0.34 0.06 39 1006.5
20260508200225 62 112 2.6 8.7 0.00 0.34 0.06 38 1006.7
20260508195725 61 16 1.7 9.6 0.00 0.34 0.06 40 1006.8
20260508195221 60 127 3.5 9.6 0.00 0.34 0.06 41 1006.8
20260508194723 60 118 5.2 8.7 0.00 0.34 0.06 40 1006.8
20260508194220 60 115 2.6 7.8 0.00 0.34 0.06 41 1006.8
20260508193720 60 140 0.9 8.7 0.00 0.34 0.06 42 1006.9
20260508193208 60 163 4.3 8.7 0.00 0.34 0.06 39 1006.9
20260508192708 61 154 0.0 11.3 0.00 0.34 0.06 40 1007.0
20260508192206 61 350 2.6 11.3 0.00 0.34 0.06 37 1007.0
20260508191707 61 18 5.2 11.3 0.01 0.34 0.06 37 1007.0
20260508191205 61 120 7.0 11.3 0.02 0.34 0.06 36 1007.1
20260508190704 61 80 3.5 9.6 0.02 0.34 0.06 38 1007.2
20260508190207 62 111 4.3 9.6 0.02 0.34 0.06 41 1007.2
20260508185702 62 25 3.5 9.6 0.02 0.34 0.06 39 1007.3
20260508185200 62 129 4.3 9.6 0.02 0.34 0.06 34 1007.4
20260508184700 62 175 0.9 9.6 0.02 0.34 0.06 35 1007.4
20260508184153 62 91 7.0 9.6 0.02 0.34 0.06 35 1007.4
20260508183654 62 43 0.0 9.6 0.02 0.34 0.06 34 1007.6
20260508183134 62 185 2.6 7.8 0.02 0.34 0.06 35 1007.6
20260508182634 62 185 2.6 8.7 0.02 0.34 0.06 36 1007.7
20260508182357 62 161 0.9 8.7 0.02 0.34 0.06 34 1007.7
20260508181850 62 68 2.6 9.6 0.01 0.33 0.06 32 1007.7
20260508181131 61 130 4.3 9.6 0.00 0.32 0.04 33 1007.8
20260508180632 61 108 3.5 8.7 0.00 0.32 0.04 34 1007.8
20260508180130 61 202 5.2 9.6 0.00 0.32 0.04 35 1007.9
20260508175629 61 125 6.1 10.4 0.00 0.32 0.04 37 1008.0
20260508175128 60 149 5.2 10.4 0.00 0.32 0.04 37 1008.1
20260508174626 60 194 4.3 9.6 0.00 0.32 0.04 39 1008.2
20260508174128 61 111 5.2 9.6 0.00 0.32 0.04 36 1008.3
20260508173628 62 68 2.6 9.6 0.00 0.32 0.04 35 1008.3
20260508173126 61 74 4.3 9.6 0.00 0.32 0.04 33 1008.4
20260508172843 61 130 3.5 8.7 0.00 0.32 0.04 38 1008.5
20260508172120 60 56 5.2 8.7 0.00 0.32 0.04 36 1008.6
20260508171622 60 104 3.5 7.8 0.00 0.32 0.04 38 1008.6
20260508171353 60 136 5.2 8.7 0.00 0.32 0.04 40 1008.8
20260508170849 60 157 5.2 8.7 0.00 0.32 0.04 41 1008.8
20260508170119 61 70 3.5 8.7 0.00 0.32 0.04 43 1008.8
20260508165617 61 104 2.6 8.7 0.01 0.32 0.04 41 1008.8
20260508165114 61 146 6.1 8.7 0.01 0.32 0.04 39 1008.9
20260508164612 61 174 0.0 7.8 0.01 0.32 0.04 42 1009.2
20260508164113 61 129 1.7 6.1 0.01 0.32 0.04 43 1009.3
20260508163608 60 119 0.9 6.1 0.01 0.32 0.04 44 1009.3
20260508163100 60 66 1.7 7.0 0.01 0.32 0.04 46 1009.5
20260508162559 60 88 2.6 7.8 0.01 0.32 0.04 47 1009.4
20260508162058 60 115 2.6 7.8 0.01 0.32 0.04 47 1009.4
20260508162035 60 45 4.3 7.0 0.01 0.32 0.04 49 1009.4
20260508161055 60 85 1.7 7.8 0.01 0.32 0.04 48 1009.4
20260508160554 60 60 2.6 7.8 0.01 0.32 0.04 47 1009.4
20260508160318 60 50 3.5 7.8 0.01 0.32 0.04 48 1009.5
20260508155554 60 43 1.7 6.1 0.00 0.31 0.03 51 1009.5
20260508155050 60 36 3.5 7.8 0.00 0.31 0.03 48 1009.6
20260508154550 60 84 2.6 7.8 0.00 0.31 0.03 52 1009.7
20260508154304 60 87 0.9 7.0 0.00 0.31 0.03 57 1009.7
20260508153545 60 142 0.9 7.0 0.00 0.31 0.03 56 1009.7
20260508153043 59 127 0.9 4.3 0.00 0.31 0.03 53 1009.7
20260508152543 59 104 0.9 5.2 0.00 0.31 0.03 49 1009.7
20260508152043 59 168 2.6 5.2 0.00 0.31 0.03 53 1009.8
20260508151542 59 82 1.7 4.3 0.00 0.31 0.03 55 1009.8
20260508151038 58 135 2.6 4.3 0.00 0.31 0.03 55 1009.9